This demonstration page uses our WeatherBlox Daily Observations layout. Learn more.

Left ArrowRight Arrow

44.89941, -97.11507

Hourly Observations for July 23, 2020

Temp ( °F °C ) Dew Point ( °F °C ) Humidity (%) Winds ( mph kmh ) Pressure ( in mb ) Visibility ( mi km ) Precip ( " mm )
12:53 am 00:53 Clear 63 17.2 58 14.4 84 84 ESE 7 11 30.03 1017 10 16 0.00 0.00
1:53 am 01:53 Clear 63 17.2 58 14.4 84 84 SE 8 13 30.03 1017 10 16 0.00 0.00
2:53 am 02:53 Partly Cloudy 62 16.7 59 15 90 90 SE 10 17 30.03 1017 10 16 0.00 0.00
3:53 am 03:53 Mostly Clear 61 16.1 59 15 93 93 SE 7 11 30.03 1017 10 16 0.00 0.00
4:53 am 04:53 Clear 61 16.1 59 15 93 93 SE 10 17 30.01 1016 10 16 0.00 0.00
5:53 am 05:53 Mostly Clear 61 16.1 59 15 93 93 SSE 10 17 30.01 1016 10 16 0.00 0.00
6:53 am 06:53 Mostly Cloudy 63 17.2 59 15 87 87 SE 12 19 30.01 1016 10 16 0.00 0.00
7:53 am 07:53 Cloudy 65 18.3 60 15.6 84 84 SE 13 20 30.00 1016 10 16 0.00 0.00
8:53 am 08:53 Sunny 70 21.1 62 16.7 76 76 SSE 13 20 30.00 1016 10 16 0.00 0.00
9:53 am 09:53 Mostly Sunny 73 22.8 63 17.2 71 71 SSE 14 22 29.99 1016 10 16 0.00 0.00
10:53 am 10:53 Partly Cloudy 76 24.4 66 18.9 72 72 SSE 14 22 29.99 1016 10 16 0.00 0.00
11:53 am 11:53 Sunny 78 25.6 67 19.4 69 69 SE 17 28 29.97 1015 10 16 0.00 0.00
12:53 pm 12:53 Partly Cloudy 80 26.7 69 20.6 69 69 SE 15 24 29.96 1015 10 16 0.00 0.00
1:53 pm 13:53 Cloudy 80 26.7 69 20.6 69 69 SE 18 30 29.96 1015 10 16 0.00 0.00
2:53 pm 14:53 Partly Cloudy 83 28.3 71 21.7 67 67 SE 16 26 29.94 1014 10 16 0.00 0.00
3:53 pm 15:53 Sunny 84 28.9 71 21.7 65 65 SE 14 22 29.92 1013 10 16 0.00 0.00
4:53 pm 16:53 Sunny 83 28.3 72 22.2 70 70 SE 20 31 29.92 1013 10 16 0.00 0.00
5:53 pm 17:53 Partly Cloudy 82 27.8 72 22.2 72 72 SE 14 22 29.91 1013 10 16 0.00 0.00
6:53 pm 18:53 Mostly Sunny 83 28.3 73 22.8 72 72 SSE 18 30 29.89 1012 10 16 0.00 0.00
7:53 pm 19:53 Mostly Cloudy 80 26.7 73 22.8 79 79 SE 18 30 29.90 1012 10 16 0.00 0.00
8:53 pm 20:53 Mostly Cloudy 79 26.1 73 22.8 82 82 SE 14 22 29.89 1012 10 16 0.00 0.00
9:28 pm 21:28 Mostly Cloudy 78 25.6 73 22.8 85 85 SE 13 20 29.84 1011 10 16 0.00 0.00
9:40 pm 21:40 Partly Cloudy 78 25.6 73 22.8 85 85 SE 13 20 29.84 1011 10 16 0.00 0.00
9:53 pm 21:53 Clear 77 25 72 22.2 85 85 SE 14 22 29.89 1012 10 16 0.00 0.00
10:53 pm 22:53 Cloudy 77 25 72 22.2 85 85 SSE 16 26 29.88 1012 10 16 0.00 0.00
11:53 pm 23:53 Clear 75 23.9 72 22.2 90 90 SSE 14 22 29.88 1012 10 16 0.00 0.00

Powered by AerisWeather